Storm Lake, IA

8:05 PM CDT on March 27, 2017 (GMT -0500)
Storm Lake Municipal

Weather History for KSLB - October, 2011

Change the Weather History Date:

Friday, October 21, 2011

  Actual Average Record
Temperature  
Mean Temperature 48 °F -  
Max Temperature 65 °F 58 °F 78 °F (2003)
Min Temperature 30 °F 39 °F 28 °F (1997)
Degree Days  
Heating Degree Days 18    
Moisture  
Dew Point 26 °F    
Average Humidity 49    
Maximum Humidity 75    
Minimum Humidity 22    
Precipitation  
Precipitation 0.00 in - - ()
Sea Level Pressure  
Sea Level Pressure 30.05 in    
Wind  
Wind Speed 8 mph (WSW)    
Max Wind Speed 16 mph    
Max Gust Speed 21 mph    
Visibility 10 miles    
Events      
Averages and records for this station are not official NWS values.
T = Trace of Precipitation, MM = Missing Value Source: NWS Daily Summary

Daily Weather History Graph

Daily Weather History Graph

Search for Another Location

Airport or City:

Trip Planner

Search our weather history database for the weather conditions in past years. The results will help you decide how hot, cold, wet, or windy it might be!

Date:

Astronomy

Oct. 21, 2011 Rise Set
Actual Time 7:40 AM CDT 6:29 PM CDT
Civil Twilight 7:12 AM CDT 6:58 PM CDT
Nautical Twilight 6:39 AM CDT 7:31 PM CDT
Astronomical Twilight 6:06 AM CDT 8:03 PM CDT
Moon 1:24 AM CDT (10/21) 3:21 PM CDT (10/21)
Length of Visible Light 11h 46m
Length of Day
10h 48m
Waning Crescent, 33% of the Moon is Illuminated
Oct 21
Waning Crescent
Oct 26
New
Nov 2
First Quarter
Nov 10
Full
Nov 18
Last Quarter

Hourly Weather History & Observations

Time (CDT) Temp. Windchill Dew Point Humidity Pressure Visibility Wind Dir Wind Speed Gust Speed Precip Events Conditions
12:15 AM 34.5 °F 28.6 °F 22.6 °F 62% 30.05 in 10.0 mi West 6.9 mph - N/A   Clear
12:35 AM 34.5 °F 27.9 °F 22.6 °F 62% 30.05 in 10.0 mi West 8.1 mph - N/A   Clear
12:55 AM 33.6 °F 26.2 °F 22.6 °F 64% 30.05 in 10.0 mi West 9.2 mph - N/A   Clear
1:15 AM 33.4 °F 26.6 °F 22.8 °F 65% 30.05 in 10.0 mi West 8.1 mph - N/A   Clear
1:35 AM 32.7 °F 25.7 °F 23.0 °F 67% 30.05 in 10.0 mi West 8.1 mph - N/A   Clear
1:55 AM 32.9 °F 25.3 °F 23.4 °F 68% 30.05 in 10.0 mi West 9.2 mph - N/A   Clear
2:15 AM 32.7 °F 27.3 °F 23.5 °F 69% 30.05 in 10.0 mi West 5.8 mph - N/A   Clear
2:35 AM 32.5 °F 26.2 °F 23.7 °F 70% 30.06 in 10.0 mi WSW 6.9 mph - N/A   Clear
2:55 AM 32.0 °F 25.6 °F 23.5 °F 71% 30.06 in 10.0 mi West 6.9 mph - N/A   Clear
3:15 AM 30.9 °F 25.2 °F 23.2 °F 73% 30.05 in 10.0 mi West 5.8 mph - N/A   Clear
3:35 AM 31.8 °F 25.4 °F 23.7 °F 72% 30.05 in 10.0 mi West 6.9 mph - N/A   Clear
4:15 AM 32.0 °F 26.4 °F 23.9 °F 72% 30.06 in 10.0 mi WSW 5.8 mph - N/A   Clear
4:35 AM 31.6 °F 27.0 °F 23.9 °F 73% 30.06 in 10.0 mi WSW 4.6 mph - N/A   Clear
4:55 AM 31.8 °F 27.3 °F 24.1 °F 73% 30.06 in 10.0 mi SW 4.6 mph - N/A   Clear
5:15 AM 31.3 °F 25.6 °F 23.9 °F 74% 30.06 in 10.0 mi SW 5.8 mph - N/A   Clear
5:55 AM 30.9 °F 25.2 °F 23.7 °F 75% 30.07 in 10.0 mi SW 5.8 mph - N/A   Clear
6:15 AM 31.1 °F 24.5 °F 23.9 °F 75% 30.07 in 10.0 mi SW 6.9 mph - N/A   Clear
6:35 AM 30.9 °F 24.3 °F 23.9 °F 75% 30.07 in 10.0 mi SSW 6.9 mph - N/A   Clear
7:15 AM 30.9 °F 24.3 °F 23.9 °F 75% 30.07 in 10.0 mi SSW 6.9 mph - N/A   Clear
7:35 AM 31.3 °F 23.9 °F 24.3 °F 75% 30.07 in 10.0 mi SSW 8.1 mph - N/A   Clear
7:55 AM 32.2 °F 25.0 °F 25.0 °F 75% 30.07 in 10.0 mi South 8.1 mph - N/A   Clear
8:15 AM 32.9 °F 25.9 °F 25.9 °F 75% 30.07 in 10.0 mi South 8.1 mph - N/A   Clear
8:35 AM 34.3 °F 27.0 °F 26.8 °F 74% 30.07 in 10.0 mi South 9.2 mph - N/A   Clear
8:55 AM 35.1 °F 28.6 °F 27.7 °F 74% 30.07 in 10.0 mi South 8.1 mph - N/A   Clear
9:15 AM 35.8 °F 30.1 °F 27.7 °F 72% 30.07 in 10.0 mi South 6.9 mph - N/A   Clear
9:35 AM 36.7 °F 31.2 °F 28.2 °F 71% 30.07 in 10.0 mi South 6.9 mph - N/A   Clear
10:15 AM 44.1 °F 37.7 °F 29.3 °F 56% 30.07 in 10.0 mi SSW 12.7 mph - N/A   Clear
10:35 AM 48.2 °F - 27.5 °F 45% 30.06 in 10.0 mi SSW 16.1 mph - N/A   Clear
10:55 AM 50.2 °F - 26.6 °F 40% 30.06 in 10.0 mi SSW 11.5 mph - N/A   Clear
11:15 AM 52.2 °F - 26.4 °F 37% 30.06 in 10.0 mi SSW 13.8 mph 18.4 mph N/A   Clear
11:35 AM 53.8 °F - 25.7 °F 34% 30.05 in 10.0 mi SSW 15.0 mph 20.7 mph N/A   Clear
11:55 AM 55.2 °F - 25.3 °F 32% 30.05 in 10.0 mi SSW 13.8 mph 19.6 mph N/A   Clear
12:15 PM 55.9 °F - 25.5 °F 31% 30.05 in 10.0 mi SSW 13.8 mph - N/A   Clear
12:35 PM 57.4 °F - 25.3 °F 29% 30.04 in 10.0 mi SSW 12.7 mph 19.6 mph N/A   Clear
12:55 PM 58.5 °F - 25.2 °F 28% 30.04 in 10.0 mi SW 12.7 mph - N/A   Clear
1:15 PM 59.2 °F - 25.5 °F 28% 30.03 in 10.0 mi SW 11.5 mph - N/A   Clear
1:35 PM 60.1 °F - 25.0 °F 26% 30.02 in 10.0 mi WSW 10.4 mph - N/A   Clear
1:55 PM 61.0 °F - 25.2 °F 25% 30.02 in 10.0 mi SW 10.4 mph - N/A   Clear
2:15 PM 62.1 °F - 25.2 °F 25% 30.02 in 10.0 mi WSW 9.2 mph - N/A   Clear
2:35 PM 62.8 °F - 25.3 °F 24% 30.01 in 10.0 mi SW 10.4 mph - N/A   Clear
2:55 PM 63.5 °F - 25.5 °F 24% 30.01 in 10.0 mi WSW 11.5 mph - N/A   Clear
3:15 PM 64.4 °F - 25.5 °F 23% 30.01 in 10.0 mi West 8.1 mph - N/A   Clear
3:35 PM 64.6 °F - 25.5 °F 23% 30.01 in 10.0 mi WSW 9.2 mph - N/A   Clear
3:55 PM 64.8 °F - 25.7 °F 23% 30.01 in 10.0 mi WSW 10.4 mph - N/A   Clear
4:15 PM 65.5 °F - 25.3 °F 22% 30.01 in 10.0 mi WSW 6.9 mph - N/A   Clear
4:35 PM 65.5 °F - 25.2 °F 22% 30.01 in 10.0 mi WSW 6.9 mph - N/A   Clear
4:55 PM 65.1 °F - 25.0 °F 22% 30.01 in 10.0 mi WSW 8.1 mph - N/A   Clear
5:15 PM 63.9 °F - 25.5 °F 23% 30.02 in 10.0 mi West 6.9 mph - N/A   Clear
5:35 PM 62.6 °F - 26.4 °F 25% 30.02 in 10.0 mi WSW 5.8 mph - N/A   Clear
5:55 PM 62.4 °F - 27.0 °F 26% 30.02 in 10.0 mi West 4.6 mph - N/A   Clear
6:15 PM 61.3 °F - 27.3 °F 27% 30.02 in 10.0 mi West 4.6 mph - N/A   Clear
6:35 PM 59.7 °F - 28.2 °F 30% 30.02 in 10.0 mi West 6.9 mph - N/A   Clear
6:55 PM 58.1 °F - 28.4 °F 32% 30.02 in 10.0 mi WSW 6.9 mph - N/A   Clear
7:15 PM 56.5 °F - 28.9 °F 35% 30.04 in 10.0 mi West 5.8 mph - N/A   Clear
7:35 PM 54.9 °F - 29.1 °F 37% 30.04 in 10.0 mi West 5.8 mph - N/A   Clear
7:55 PM 54.0 °F - 29.5 °F 39% 30.04 in 10.0 mi WNW 8.1 mph - N/A   Clear
8:15 PM 53.6 °F - 30.4 °F 41% 30.04 in 10.0 mi WNW 6.9 mph - N/A   Clear
8:35 PM 55.2 °F - 31.1 °F 40% 30.04 in 10.0 mi WNW 6.9 mph - N/A   Clear
8:55 PM 53.8 °F - 30.9 °F 42% 30.04 in 10.0 mi West 8.1 mph - N/A   Clear
9:15 PM 50.9 °F - 30.9 °F 46% 30.05 in 10.0 mi West 8.1 mph - N/A   Clear
9:35 PM 50.0 °F - 31.1 °F 48% 30.05 in 10.0 mi West 6.9 mph - N/A   Clear
10:15 PM 50.2 °F - 31.6 °F 49% 30.06 in 10.0 mi West 8.1 mph - N/A   Clear
10:35 PM 48.4 °F - 31.6 °F 52% 30.06 in 10.0 mi West 6.9 mph - N/A   Clear
10:55 PM 49.5 °F - 32.4 °F 52% 30.07 in 10.0 mi NW 9.2 mph - N/A   Clear
11:15 PM 52.3 °F - 32.7 °F 47% 30.07 in 10.0 mi NW 10.4 mph - N/A   Clear
11:35 PM 51.3 °F - 32.5 °F 49% 30.07 in 10.0 mi NW 8.1 mph - N/A   Clear
11:55 PM 50.5 °F - 32.4 °F 50% 30.08 in 10.0 mi NW 6.9 mph - N/A   Clear